Weather History for Cape Girardeau, MO

Change the Weather History Date:

Wednesday, May 23, 2012

  Actual Average Record
Temperature  
Mean Temperature 65 °F 69 °F  
Max Temperature 83 °F 80 °F 93 °F (1970)
Min Temperature 47 °F 58 °F 38 °F (1963)
Degree Days  
Heating Degree Days 0 1  
Month to date heating degree days 14 61  
Since 1 July heating degree days 3341 4379  
Cooling Degree Days 0 5  
Month to date cooling degree days 133 74  
Year to date cooling degree days 240 105  
Growing Degree Days 14 (Base 50)    
Moisture  
Dew Point 49 °F    
Average Humidity 63    
Maximum Humidity 100    
Minimum Humidity 26    
Precipitation  
Precipitation 0.00 in 0.16 in 2.45 in (1966)
Month to date precipitation 0.69 4.26  
Year to date precipitation 10.03 19.90  
Sea Level Pressure  
Sea Level Pressure 29.84 in    
Wind  
Wind Speed 5 mph (SSE)    
Max Wind Speed 13 mph    
Max Gust Speed 18 mph    
Visibility 10 miles    
Events      
T = Trace of Precipitation, MM = Missing Value Source: NWS Daily Summary

Daily Weather History Graph

Daily Weather History Graph

Search for Another Location

Airport:

Trip Planner

Search our weather history database for the weather conditions in past years. The results will help you decide how hot, cold, wet, or windy it might be!

Date:

Astronomy

May. 23, 2012 Rise Set
Actual Time 5:43 AM CDT 8:06 PM CDT
Civil Twilight 5:13 AM CDT 8:36 PM CDT
Nautical Twilight 4:37 AM CDT 9:13 PM CDT
Astronomical Twilight 3:56 AM CDT 9:54 PM CDT
Moon 7:46 AM CDT (5/23) 10:28 PM CDT (5/23)
Length of Visible Light 15h 22m
Length of Day
14h 23m
Waxing Crescent, 7% of the Moon is Illuminated
May 23
Waxing Crescent
May 28
First Quarter
Jun 4
Full
Jun 11
Last Quarter
Jun 19
New

Hourly Weather History & Observations

Time (CDT) Temp. Dew Point Humidity Pressure Visibility Wind Dir Wind Speed Gust Speed Precip Events Conditions
12:53 AM 55.0 °F 50.0 °F 83% 29.91 in 10.0 mi Calm Calm - N/A   Clear
1:53 AM 51.1 °F 48.9 °F 92% 29.89 in 10.0 mi Calm Calm - N/A   Clear
2:53 AM 48.2 °F 48.2 °F 100% 29.88 in 10.0 mi ESE 3.5 mph - N/A   Clear
3:53 AM 48.9 °F 48.0 °F 97% 29.88 in 10.0 mi Calm Calm - N/A   Clear
4:53 AM 48.0 °F 46.9 °F 96% 29.88 in 9.0 mi WSW 4.6 mph - N/A   Clear
5:53 AM 46.9 °F 46.0 °F 97% 29.88 in 9.0 mi Calm Calm - N/A   Clear
6:53 AM 53.1 °F 51.1 °F 93% 29.89 in 10.0 mi Calm Calm - N/A   Clear
7:53 AM 57.9 °F 54.0 °F 87% 29.90 in 9.0 mi Calm Calm - N/A   Clear
8:53 AM 66.0 °F 53.1 °F 63% 29.91 in 10.0 mi Calm Calm - N/A   Clear
9:53 AM 73.0 °F 50.0 °F 44% 29.89 in 10.0 mi South 6.9 mph - N/A   Clear
10:53 AM 75.0 °F 46.0 °F 36% 29.89 in 10.0 mi Variable 5.8 mph - N/A   Clear
12:53 PM 78.1 °F 48.0 °F 35% 29.86 in 10.0 mi Variable 4.6 mph - N/A   Clear
1:53 PM 81.0 °F 46.0 °F 29% 29.84 in 10.0 mi SSE 6.9 mph - N/A   Clear
2:53 PM 81.0 °F 46.0 °F 29% 29.83 in 10.0 mi SE 8.1 mph - N/A   Clear
3:53 PM 82.0 °F 48.9 °F 31% 29.80 in 10.0 mi SSE 5.8 mph - N/A   Clear
4:53 PM 82.0 °F 46.9 °F 29% 29.79 in 10.0 mi South 9.2 mph - N/A   Clear
5:53 PM 82.0 °F 44.1 °F 26% 29.78 in 10.0 mi SSE 6.9 mph - N/A   Clear
6:53 PM 80.1 °F 46.9 °F 31% 29.77 in 10.0 mi SSE 6.9 mph - N/A   Clear
7:53 PM 73.9 °F 46.9 °F 38% 29.76 in 10.0 mi SSE 6.9 mph - N/A   Clear
8:53 PM 69.1 °F 48.9 °F 49% 29.76 in 10.0 mi SE 6.9 mph - N/A   Clear
9:53 PM 68.0 °F 50.0 °F 52% 29.78 in 10.0 mi SSE 5.8 mph - N/A   Clear
10:53 PM 69.1 °F 51.1 °F 53% 29.78 in 10.0 mi SE 8.1 mph - N/A   Clear
11:53 PM 68.0 °F 52.0 °F 56% 29.78 in 10.0 mi SE 6.9 mph - N/A   Clear